Change the Weather History Date:

Sunday, April 27, 2014

  Actual Average Record
Temperature  
Mean Temperature 38 °F -  
Max Temperature 50 °F 57 °F 80 °F (1986)
Min Temperature 27 °F 33 °F 17 °F (1934)
Degree Days  
Heating Degree Days 26    
Moisture  
Dew Point 25 °F    
Average Humidity 63    
Maximum Humidity 89    
Minimum Humidity 40    
Precipitation  
Precipitation 0.00 in - - ()
Sea Level Pressure  
Sea Level Pressure 30.20 in    
Wind  
Wind Speed 7 mph (East)    
Max Wind Speed 15 mph    
Max Gust Speed 23 mph    
Visibility 10 miles    
Events      
Averages and records for this station are not official NWS values.
T = Trace of Precipitation, MM = Missing Value Source: NWS Daily Summary

Daily Weather History Graph

Daily Weather History Graph

Search for Another Location

Airport or City:

Trip Planner

Search our weather history database for the weather conditions in past years. The results will help you decide how hot, cold, wet, or windy it might be!

Date:

Astronomy

Apr. 27, 2014 Rise Set
Actual Time 6:34 AM EDT 8:45 PM EDT
Civil Twilight 6:01 AM EDT 9:18 PM EDT
Nautical Twilight 5:20 AM EDT 9:59 PM EDT
Astronomical Twilight 4:35 AM EDT 10:44 PM EDT
Moon 5:41 AM EDT 7:13 PM EDT
Length of Visible Light 15h 16m
Length of Day
14h 11m
Waning Crescent, 3% of the Moon is Illuminated
Apr 27
Waning Crescent
Apr 29
New
May 6
First Quarter
May 14
Full
May 21
Last Quarter

Hourly Weather History & Observations

Time (EDT) Temp. Windchill Dew Point Humidity Pressure Visibility Wind Dir Wind Speed Gust Speed Precip Events Conditions
12:14 AM 28.8 °F 22.6 °F 24.8 °F 85% 30.15 in 10.0 mi North 5.8 mph - N/A   Clear
12:35 AM 28.4 °F 21.2 °F 24.8 °F 86% 30.15 in 10.0 mi North 6.9 mph - N/A   Clear
12:55 AM 28.6 °F 23.5 °F 24.8 °F 86% 30.16 in 10.0 mi North 4.6 mph - N/A   Clear
1:14 AM 28.9 °F 21.9 °F 24.8 °F 84% 30.16 in 10.0 mi North 6.9 mph - N/A   Clear
1:35 AM 29.1 °F 25.4 °F 24.3 °F 82% 30.18 in 10.0 mi NNW 3.5 mph - N/A   Clear
1:54 AM 29.1 °F - 24.1 °F 81% 30.19 in 10.0 mi Calm Calm - N/A   Clear
2:14 AM 29.1 °F - 23.9 °F 81% 30.19 in 10.0 mi Calm Calm - N/A   Clear
2:35 AM 28.9 °F 20.4 °F 24.8 °F 84% 30.20 in 10.0 mi NNW 9.2 mph - N/A   Clear
2:54 AM 28.4 °F 21.2 °F 24.8 °F 86% 30.20 in 10.0 mi North 6.9 mph - N/A   Clear
3:15 AM 28.6 °F 20.7 °F 24.6 °F 85% 30.20 in 10.0 mi North 8.1 mph - N/A   Clear
3:35 AM 28.4 °F 20.4 °F 24.4 °F 85% 30.20 in 10.0 mi North 8.1 mph - N/A   Clear
3:54 AM 28.0 °F 20.0 °F 24.3 °F 86% 30.20 in 10.0 mi North 8.1 mph - N/A   Clear
4:15 AM 28.0 °F 20.0 °F 24.4 °F 86% 30.20 in 10.0 mi North 8.1 mph - N/A   Clear
4:35 AM 28.8 °F 23.7 °F 24.8 °F 85% 30.21 in 10.0 mi North 4.6 mph - N/A   Clear
4:54 AM 28.4 °F - 25.3 °F 88% 30.21 in 10.0 mi Calm Calm - N/A   Clear
5:15 AM 29.1 °F 24.1 °F 25.3 °F 86% 30.22 in 10.0 mi NE 4.6 mph - N/A   Clear
5:34 AM 28.4 °F 22.2 °F 25.3 °F 88% 30.21 in 10.0 mi NE 5.8 mph - N/A   Clear
5:54 AM 28.0 °F 22.8 °F 25.2 °F 89% 30.21 in 10.0 mi NE 4.6 mph - N/A   Clear
6:15 AM 28.2 °F 23.1 °F 24.8 °F 87% 30.21 in 10.0 mi ENE 4.6 mph - N/A   Clear
6:35 AM 27.5 °F 23.6 °F 24.4 °F 88% 30.21 in 10.0 mi NE 3.5 mph - N/A   Clear
6:55 AM 27.5 °F - 24.4 °F 88% 30.22 in 10.0 mi Calm Calm - N/A   Clear
7:14 AM 27.5 °F 23.6 °F 23.9 °F 86% 30.22 in 10.0 mi ENE 3.5 mph - N/A   Clear
7:34 AM 28.4 °F 23.3 °F 23.9 °F 83% 30.22 in 10.0 mi ENE 4.6 mph - N/A   Clear
7:55 AM 29.1 °F 23.0 °F 23.9 °F 81% 30.23 in 10.0 mi ENE 5.8 mph - N/A   Clear
8:15 AM 30.0 °F 24.1 °F 24.3 °F 79% 30.24 in 10.0 mi East 5.8 mph - N/A   Clear
8:34 AM 31.5 °F 26.8 °F 24.4 °F 75% 30.24 in 10.0 mi East 4.6 mph - N/A   Clear
8:55 AM 32.9 °F 26.7 °F 24.3 °F 71% 30.24 in 10.0 mi East 6.9 mph - N/A   Clear
9:15 AM 34.3 °F 27.7 °F 24.4 °F 67% 30.24 in 10.0 mi East 8.1 mph - N/A   Clear
9:34 AM 35.8 °F 29.4 °F 23.5 °F 61% 30.24 in 10.0 mi East 8.1 mph - N/A   Clear
9:55 AM 37.2 °F 29.6 °F 23.7 °F 58% 30.24 in 10.0 mi East 11.5 mph - N/A   Clear
10:15 AM 38.3 °F 31.4 °F 23.5 °F 55% 30.25 in 10.0 mi East 10.4 mph - N/A   Clear
10:34 AM 39.0 °F 34.0 °F 23.2 °F 53% 30.25 in 10.0 mi East 6.9 mph - N/A   Clear
10:55 AM 39.7 °F 34.9 °F 23.0 °F 51% 30.25 in 10.0 mi East 6.9 mph - N/A   Clear
11:14 AM 40.8 °F 35.6 °F 23.5 °F 50% 30.24 in 10.0 mi ENE 8.1 mph - N/A   Clear
11:35 AM 41.4 °F 34.0 °F 24.1 °F 50% 30.24 in 10.0 mi East 13.8 mph 17.3 mph N/A   Clear
11:55 AM 41.9 °F 35.9 °F 24.4 °F 50% 30.24 in 10.0 mi East 10.4 mph 17.3 mph N/A   Clear
12:14 PM 42.6 °F 36.8 °F 25.2 °F 50% 30.24 in 10.0 mi East 10.4 mph 16.1 mph N/A   Clear
12:35 PM 44.2 °F 38.0 °F 27.1 °F 51% 30.23 in 10.0 mi ESE 12.7 mph - N/A   Clear
12:54 PM 45.1 °F 39.5 °F 27.1 °F 49% 30.22 in 7.0 mi East 11.5 mph 16.1 mph N/A   Clear
1:14 PM 44.8 °F 38.0 °F 25.7 °F 47% 30.21 in 10.0 mi East 15.0 mph 20.7 mph N/A   Clear
1:35 PM 45.9 °F 40.4 °F 25.3 °F 45% 30.21 in 10.0 mi East 11.5 mph 17.3 mph N/A   Clear
1:54 PM 46.2 °F 40.5 °F 26.6 °F 46% 30.21 in 10.0 mi ESE 12.7 mph 21.9 mph N/A   Clear
2:15 PM 47.5 °F - 27.9 °F 47% 30.20 in 10.0 mi ESE 12.7 mph 19.6 mph N/A   Clear
2:35 PM 47.8 °F - 27.7 °F 46% 30.19 in 10.0 mi East 13.8 mph 17.3 mph N/A   Clear
2:54 PM 47.7 °F - 27.3 °F 45% 30.19 in 10.0 mi East 8.1 mph 17.3 mph N/A   Clear
3:15 PM 48.9 °F - 27.1 °F 43% 30.19 in 10.0 mi ESE 13.8 mph 17.3 mph N/A   Clear
3:34 PM 49.1 °F - 27.3 °F 43% 30.18 in 10.0 mi ENE 12.7 mph - N/A   Clear
4:14 PM 50.0 °F - 27.5 °F 42% 30.17 in 10.0 mi ESE 11.5 mph 23.0 mph N/A   Clear
4:35 PM 49.3 °F - 25.9 °F 40% 30.17 in 10.0 mi ENE 15.0 mph 23.0 mph N/A   Clear
4:54 PM 49.3 °F - 26.8 °F 42% 30.17 in 10.0 mi ESE 13.8 mph 20.7 mph N/A   Clear
5:14 PM 49.3 °F - 27.1 °F 42% 30.16 in 10.0 mi East 10.4 mph - N/A   Clear
5:35 PM 49.5 °F - 26.2 °F 40% 30.16 in 10.0 mi East 11.5 mph 19.6 mph N/A   Clear
5:54 PM 49.3 °F - 25.9 °F 40% 30.16 in 10.0 mi East 10.4 mph 21.9 mph N/A   Clear
6:15 PM 49.5 °F - 25.7 °F 40% 30.17 in 10.0 mi ESE 13.8 mph 17.3 mph N/A   Clear
6:34 PM 49.1 °F - 25.7 °F 40% 30.16 in 10.0 mi ESE 13.8 mph - N/A   Clear
6:54 PM 49.3 °F - 26.2 °F 41% 30.15 in 10.0 mi East 10.4 mph - N/A   Clear
7:14 PM 48.6 °F - 25.2 °F 40% 30.15 in 10.0 mi SE 11.5 mph - N/A   Clear
7:34 PM 46.9 °F - 25.9 °F 44% 30.15 in 10.0 mi ESE 11.5 mph - N/A   Clear
7:54 PM 46.4 °F 42.4 °F 26.1 °F 45% 30.16 in 10.0 mi ESE 8.1 mph - N/A   Clear
8:14 PM 44.8 °F 39.9 °F 26.4 °F 49% 30.17 in 10.0 mi SSE 9.2 mph - N/A   Clear
8:35 PM 43.0 °F 38.8 °F 26.6 °F 52% 30.18 in 10.0 mi SSE 6.9 mph - N/A   Clear
8:54 PM 42.1 °F 37.7 °F 25.2 °F 51% 30.20 in 10.0 mi SE 6.9 mph - N/A   Clear
9:15 PM 41.2 °F 36.0 °F 25.0 °F 53% 30.22 in 10.0 mi SE 8.1 mph - N/A   Clear
9:35 PM 39.0 °F 35.7 °F 26.1 °F 60% 30.23 in 10.0 mi South 4.6 mph - N/A   Clear
9:55 PM 37.4 °F 32.8 °F 26.1 °F 64% 30.23 in 10.0 mi East 5.8 mph - N/A   Clear
10:14 PM 37.4 °F 32.8 °F 24.8 °F 60% 30.23 in 10.0 mi East 5.8 mph - N/A   Clear
10:34 PM 36.5 °F 31.8 °F 25.2 °F 64% 30.23 in 10.0 mi ENE 5.8 mph - N/A   Clear
10:55 PM 35.8 °F 31.9 °F 25.0 °F 65% 30.23 in 10.0 mi East 4.6 mph - N/A   Clear
11:14 PM 35.4 °F 30.5 °F 24.8 °F 65% 30.23 in 10.0 mi ENE 5.8 mph - N/A   Clear
11:35 PM 35.1 °F 29.3 °F 24.8 °F 66% 30.22 in 10.0 mi ENE 6.9 mph - N/A   Clear
11:55 PM 34.9 °F 29.0 °F 24.8 °F 67% 30.21 in 10.0 mi East 6.9 mph - N/A   Clear